[[{"header":{"parameterUnit":"m.s-1","parameterCategory":1,"la1":30.2991,"la2":30.254,"lo1":-89.0895,"lo2":-89.0444,"dy":0.0017,"dx":0.0017,"nx":28,"ny":28,"refTime":"2025-03-06T09:00:00:Z","depth":0,"parameterNumber":2,"parameterNumberName":"U-component_of_WINDS"},"data":[0,0,0,0,0,0,0,0,0,0,0,0,0,0,0,0,0,0,0,0,0,0,0,0,0,0,0,0,0,0,0,0,0,0,0,0,0,0,0,0,0,0,0,0,0,0,0,0,0,0,0,0,0,0,0,0,0,0,4.0702,4.0704,0,4.0841,4.0842,4.0844,4.0806,4.0803,4.08,4.0797,4.094,4.0947,4.0953,0,0,0,0,0,0,0,0,0,0,0,0,0,4.0406,4.0411,4.0702,4.0704,4.0706,4.0841,4.0843,4.0844,4.0806,4.0803,4.0799,4.0796,4.0938,4.0946,4.0954,0,0,0,0,0,0,0,0,0,0,0,0,0,4.0539,4.0413,4.0702,4.0703,4.0704,4.084,4.0843,4.0845,4.0807,4.0803,4.0798,4.0794,4.0936,4.0945,4.0955,4.1099,0,0,4.0984,4.0988,0,0,0,0,0,0,0,0,4.0531,4.0549,4.0701,4.0703,4.0705,4.0802,4.079,4.093,4.0808,4.0768,4.0797,4.0792,4.0898,4.091,4.0946,4.1105,4.1112,4.0985,4.0991,4.0995,4.0998,0,0,0,0,0,0,0,4.0522,4.0543,4.0757,4.0703,4.0705,4.0697,4.0711,4.0817,4.0855,4.0771,4.0769,4.0785,4.0898,4.0936,4.0949,4.1114,4.0985,4.0993,4.0999,4.1003,4.14,4.1405,0,0,0,0,0,0,4.0511,4.0536,4.0753,4.0761,4.0606,4.0705,4.0721,4.0775,4.0854,4.0861,4.0789,4.0783,4.0922,4.0937,4.0954,4.1128,4.0995,4.1004,4.101,4.1396,4.1401,4.1407,0,0,0,0,0,0,4.0505,4.0531,4.0747,4.0648,4.0675,4.0715,4.0775,4.078,4.0818,4.0867,4.0874,4.0821,4.0919,4.094,4.1063,4.1133,4.1008,4.1017,4.139,4.1397,4.1404,4.1478,0,0,0,0,0,0,4.0496,4.0529,4.0583,4.0649,4.068,4.0854,4.078,4.0785,4.0835,4.0828,4.0899,4.0907,4.0917,4.1049,4.1073,4.1144,4.1025,4.1384,4.1393,4.1402,4.147,4.1487,4.1502,0,0,0,0,0,4.0486,4.0599,4.0586,4.0613,4.0749,4.0858,4.0876,4.0886,4.084,4.0896,4.0928,4.0904,4.1121,4.1062,4.1088,4.1163,4.138,4.1391,4.1401,4.1463,4.1484,4.1502,0,0,0,0,0,0,4.054,4.0607,4.0594,4.0732,4.0789,4.0851,4.0922,4.0907,4.0979,4.0971,4.098,4.0997,4.1123,4.1155,4.1088,4.1308,4.1244,4.126,4.1282,4.1302,4.1318,4.1308,4.1033,0,0,0,0,0,4.0567,4.065,4.0704,4.082,4.085,4.0881,4.0929,4.0932,4.0992,4.1016,4.1057,4.1117,4.1199,4.1252,4.133,4.1475,4.149,4.1539,4.1555,4.1568,4.1582,4.1663,4.1685,4.1442,4.1442,4.1442,0,0,4.0626,4.0673,4.0724,4.0832,4.0877,4.0963,4.0902,4.0995,4.1059,4.103,4.1149,4.1182,4.1249,4.1384,4.1446,4.1415,4.1653,4.1582,4.1592,4.1599,4.1676,4.1699,4.1719,4.1449,4.1448,4.1447,0,0,4.0776,4.0819,4.0921,4.0968,4.1037,4.1057,4.1082,4.1146,4.1167,4.1286,4.1267,4.1344,4.1484,4.1533,4.1577,4.1747,4.1729,4.1772,4.1856,4.1934,4.1953,4.197,4.2032,4.2054,4.1786,4.1787,4.1787,0,4.084,4.0967,4.0975,4.1071,4.1119,4.1098,4.1202,4.1247,4.1338,4.1372,4.1337,4.1513,4.1557,4.1704,4.1746,4.1781,4.181,4.1764,4.195,4.1967,4.1983,4.2042,4.2065,4.1791,4.1791,4.179,4.179,0,4.1043,4.1132,4.1206,4.1295,4.1352,4.1451,4.1475,4.1532,4.153,4.1554,4.1677,4.1729,4.1818,4.1853,4.1852,4.2,4.1979,4.1947,4.1883,4.2011,4.2067,4.2089,4.1798,4.1797,4.1795,4.1794,0,0,4.123,4.1323,4.135,4.139,4.1466,4.1535,4.1634,4.172,4.1769,4.1833,4.1917,4.2037,4.2008,4.2057,4.2062,4.213,4.2263,4.209,4.2091,4.2121,4.2431,4.2455,4.2481,4.2251,4.2256,4.2259,4.2426,0,4.1387,4.156,4.1571,4.1728,4.1811,4.1792,4.1878,4.1935,4.196,4.2035,4.2063,4.2148,4.2103,4.2133,4.22,4.2233,4.2326,4.2221,4.233,4.2334,4.2314,4.251,4.2535,4.269,4.2447,4.2451,4.2454,0,4.1593,4.1664,4.1829,4.1894,4.1929,4.2006,4.2087,4.2158,4.2222,4.2236,4.2292,4.2287,4.2389,4.2322,4.2464,4.2392,4.2438,4.2461,4.2467,4.2478,4.2402,4.2527,4.2739,4.2763,4.2488,4.2485,4.2483,0,4.1714,4.185,4.1967,4.2002,4.208,4.2135,4.217,4.223,4.2282,4.2353,4.2386,4.2469,4.2514,4.2578,4.2596,4.2545,4.2737,4.2671,4.2753,4.2752,4.2794,4.2791,4.3017,4.2823,4.2822,4.2822,4.2821,0,4.1889,4.1991,4.2023,4.2094,4.2209,4.2221,4.2334,4.2365,4.2419,4.2497,4.2486,4.256,4.2579,4.2657,4.2672,4.2788,4.2808,4.2823,4.2826,4.2824,4.2823,4.2854,4.2844,4.2828,4.2827,4.2825,4.2824,0,4.2043,4.2068,4.2194,4.2258,4.2277,4.2358,4.2413,4.2483,4.2507,4.2607,4.2631,4.267,4.2761,4.2785,4.2894,4.2904,4.3041,4.3033,4.3019,4.3019,4.3099,4.3092,4.3354,4.339,4.3171,4.3173,4.3175,0,4.2153,4.2231,4.2303,4.2355,4.2392,4.2476,4.2529,4.2544,4.26,4.2679,4.2739,4.2829,4.2902,4.3049,4.3087,4.3171,4.3166,4.3252,4.3178,4.3175,4.3168,4.3163,4.3171,4.3266,4.3268,4.327,4.3272,0,4.2345,4.2354,4.243,4.2512,4.2575,4.264,4.2703,4.2746,4.277,4.2833,4.2927,4.2983,4.3095,4.3185,4.327,4.3307,4.3294,4.3295,4.3318,4.3317,4.3306,4.3314,4.3058,4.3289,4.3287,4.3286,4.3285,4.3284,4.2481,4.255,4.2612,4.2698,4.2746,4.2805,4.2874,4.2907,4.2985,4.3077,4.3082,4.3183,4.3246,4.3359,4.3401,4.3481,4.3455,4.3489,4.3498,4.3506,4.3513,4.3293,4.3496,4.3496,4.3496,4.3495,4.3495,0,4.2673,4.2713,4.2792,4.2879,4.2947,4.2929,4.2997,4.3056,4.3145,4.3204,4.3276,4.3384,4.3472,4.3517,4.3604,4.366,4.3656,4.3682,4.3678,4.3688,4.3531,4.3502,4.3684,4.3684,4.3684,4.3684,4.3684,4.3684,4.2782,4.2898,4.2914,4.3055,4.3093,4.3192,4.3233,4.3288,4.3336,4.3456,4.3529,4.3558,4.3612,4.3704,4.3783,4.3794,4.3827,4.3857,4.3865,4.3718,4.3698,4.368,4.3653,4.3864,4.3864,4.4015,4.4017,4.4018]},{"header":{"parameterUnit":"m.s-1","parameterCategory":1,"la1":30.2991,"la2":30.254,"lo1":-89.0895,"lo2":-89.0444,"dy":0.0017,"dx":0.0017,"nx":28,"ny":28,"refTime":"2025-03-06T09:00:00:Z","depth":0,"parameterNumber":3,"parameterNumberName":"V-component_of_WINDS"},"data":[0,0,0,0,0,0,0,0,0,0,0,0,0,0,0,0,0,0,0,0,0,0,0,0,0,0,0,0,0,0,0,0,0,0,0,0,0,0,0,0,0,0,0,0,0,0,0,0,0,0,0,0,0,0,0,0,0,0,-4.0695,-4.0697,0,-4.0861,-4.0863,-4.0865,-4.0811,-4.0807,-4.0804,-4.08,-4.0975,-4.0983,-4.0991,0,0,0,0,0,0,0,0,0,0,0,0,0,-4.0337,-4.0343,-4.0695,-4.0697,-4.0699,-4.086,-4.0863,-4.0865,-4.0812,-4.0807,-4.0803,-4.0799,-4.0973,-4.0982,-4.0992,0,0,0,0,0,0,0,0,0,0,0,0,0,-4.0497,-4.0346,-4.0694,-4.0691,-4.0693,-4.086,-4.0863,-4.0866,-4.0812,-4.0807,-4.0802,-4.0797,-4.097,-4.0981,-4.0993,-4.1175,0,0,-4.103,-4.1035,0,0,0,0,0,0,0,0,-4.0488,-4.051,-4.069,-4.0692,-4.0694,-4.0809,-4.0801,-4.0969,-4.0814,-4.0767,-4.08,-4.0794,-4.0925,-4.094,-4.0983,-4.1183,-4.119,-4.1031,-4.1038,-4.1043,-4.1047,0,0,0,0,0,0,0,-4.0477,-4.0502,-4.076,-4.0693,-4.0695,-4.0684,-4.07,-4.0832,-4.0874,-4.0771,-4.0767,-4.0787,-4.0925,-4.0972,-4.0987,-4.1193,-4.103,-4.1041,-4.1049,-4.1053,-4.1551,-4.1556,0,0,0,0,0,0,-4.0463,-4.0493,-4.0755,-4.0765,-4.0575,-4.0694,-4.0713,-4.0778,-4.0873,-4.0882,-4.0792,-4.0784,-4.0954,-4.0973,-4.0993,-4.1213,-4.1043,-4.1054,-4.1061,-4.1545,-4.1552,-4.1559,0,0,0,0,0,0,-4.0456,-4.0487,-4.0749,-4.0629,-4.0661,-4.0706,-4.0779,-4.0784,-4.0831,-4.0888,-4.0896,-4.0832,-4.0951,-4.0976,-4.113,-4.1218,-4.106,-4.1071,-4.1538,-4.1547,-4.1555,-4.1653,0,0,0,0,0,0,-4.0446,-4.0485,-4.0553,-4.063,-4.0667,-4.0881,-4.0785,-4.0791,-4.0851,-4.0843,-4.0928,-4.0937,-4.0948,-4.1112,-4.1142,-4.1231,-4.108,-4.153,-4.1542,-4.1552,-4.1642,-4.1664,-4.1683,0,0,0,0,0,-4.0433,-4.0575,-4.0557,-4.0589,-4.0753,-4.0886,-4.0908,-4.0917,-4.0858,-4.0928,-4.0965,-4.0934,-4.1203,-4.1128,-4.1161,-4.1256,-4.1524,-4.1538,-4.1552,-4.1633,-4.166,-4.1682,0,0,0,0,0,0,-4.0509,-4.0585,-4.0566,-4.0736,-4.0805,-4.0877,-4.0965,-4.0945,-4.1033,-4.1022,-4.103,-4.105,-4.1208,-4.1247,-4.1162,-4.1437,-4.1355,-4.1376,-4.1406,-4.1432,-4.1452,-4.144,-4.109,0,0,0,0,0,-4.0545,-4.0645,-4.0707,-4.0851,-4.0886,-4.092,-4.0978,-4.0979,-4.1051,-4.1081,-4.1129,-4.1202,-4.1303,-4.1369,-4.1465,-4.1647,-4.1666,-4.1728,-4.1749,-4.1765,-4.1784,-4.1884,-4.1913,-4.1603,-4.1603,-4.1603,0,0,-4.0622,-4.0675,-4.0738,-4.0868,-4.0921,-4.1026,-4.0945,-4.106,-4.1138,-4.1099,-4.1247,-4.1285,-4.1367,-4.1535,-4.1612,-4.1573,-4.1873,-4.1782,-4.1795,-4.1805,-4.1901,-4.193,-4.1956,-4.1612,-4.1611,-4.1609,0,0,-4.0815,-4.0865,-4.0991,-4.1046,-4.1127,-4.1148,-4.1179,-4.1254,-4.1277,-4.1425,-4.1398,-4.1492,-4.1666,-4.1725,-4.1779,-4.1994,-4.197,-4.2025,-4.2133,-4.2231,-4.2255,-4.2277,-4.2355,-4.2383,-4.2043,-4.2043,-4.2043,0,-4.09,-4.1055,-4.1059,-4.1176,-4.1234,-4.1201,-4.133,-4.1384,-4.1493,-4.1535,-4.1489,-4.1706,-4.1759,-4.1942,-4.1994,-4.2038,-4.2074,-4.2016,-4.2251,-4.2273,-4.2293,-4.2368,-4.2397,-4.205,-4.2049,-4.2048,-4.2048,0,-4.1157,-4.1265,-4.1358,-4.1462,-4.1531,-4.1654,-4.1677,-4.1747,-4.1741,-4.1768,-4.192,-4.1982,-4.2091,-4.2134,-4.213,-4.2317,-4.229,-4.2248,-4.2166,-4.2329,-4.24,-4.2428,-4.2059,-4.2056,-4.2055,-4.2053,0,0,-4.1404,-4.1508,-4.1542,-4.1589,-4.1676,-4.1761,-4.1882,-4.1986,-4.2047,-4.2123,-4.2227,-4.2374,-4.2335,-4.2395,-4.2398,-4.2484,-4.2652,-4.2431,-4.2433,-4.2471,-4.2864,-4.2896,-4.2929,-4.2636,-4.2641,-4.2645,-4.2857,0,-4.1605,-4.1817,-4.1823,-4.2018,-4.2119,-4.2089,-4.2195,-4.2261,-4.2289,-4.238,-4.2412,-4.2517,-4.2457,-4.2493,-4.2576,-4.2614,-4.2731,-4.2599,-4.2734,-4.2739,-4.2716,-4.2966,-4.3001,-4.3198,-4.2885,-4.2889,-4.2893,0,-4.1869,-4.1952,-4.2155,-4.2228,-4.2271,-4.2366,-4.2462,-4.2549,-4.2624,-4.2638,-4.2706,-4.2696,-4.2822,-4.2735,-4.291,-4.282,-4.2875,-4.2902,-4.291,-4.2925,-4.2827,-4.2989,-4.326,-4.3291,-4.2936,-4.2932,-4.2929,0,-4.203,-4.2193,-4.2336,-4.2377,-4.2465,-4.2533,-4.2573,-4.2642,-4.2704,-4.2789,-4.283,-4.2929,-4.2984,-4.3062,-4.308,-4.3014,-4.3255,-4.3169,-4.3273,-4.3273,-4.3327,-4.3323,-4.3613,-4.336,-4.3359,-4.3359,-4.3358,0,-4.2255,-4.2382,-4.2409,-4.2498,-4.2639,-4.2646,-4.2786,-4.2822,-4.2883,-4.298,-4.296,-4.3051,-4.3068,-4.3163,-4.3178,-4.3322,-4.3346,-4.3363,-4.3366,-4.3366,-4.3365,-4.3404,-4.3392,-4.3367,-4.3365,-4.3363,-4.3362,0,-4.246,-4.2484,-4.2638,-4.2708,-4.2728,-4.283,-4.2891,-4.2976,-4.3001,-4.3124,-4.3153,-4.3194,-4.3305,-4.333,-4.3462,-4.3472,-4.3643,-4.3632,-4.3618,-4.3618,-4.372,-4.3711,-4.4047,-4.4092,-4.3808,-4.3811,-4.3813,0,-4.2603,-4.27,-4.2779,-4.2841,-4.2884,-4.2984,-4.3048,-4.3058,-4.3125,-4.3217,-4.3293,-4.3401,-4.3489,-4.3668,-4.3711,-4.3812,-4.3805,-4.3915,-4.382,-4.3817,-4.3809,-4.3803,-4.3814,-4.3934,-4.3937,-4.394,-4.3942,0,-4.2856,-4.2862,-4.2953,-4.3048,-4.3123,-4.32,-4.3272,-4.3324,-4.3345,-4.3422,-4.3534,-4.3602,-4.3737,-4.3846,-4.3947,-4.399,-4.3972,-4.3971,-4.4001,-4.4003,-4.3991,-4.4001,-4.3669,-4.3964,-4.3961,-4.396,-4.3959,-4.3958,-4.3036,-4.312,-4.3189,-4.3291,-4.3346,-4.3414,-4.3498,-4.3533,-4.3627,-4.3736,-4.3737,-4.386,-4.3933,-4.4068,-4.4117,-4.4215,-4.4181,-4.4223,-4.4235,-4.4246,-4.4256,-4.3974,-4.4233,-4.4233,-4.4232,-4.4232,-4.4231,0,-4.3288,-4.3331,-4.3424,-4.3525,-4.3606,-4.3577,-4.3656,-4.3726,-4.3834,-4.3903,-4.3989,-4.4119,-4.4224,-4.4275,-4.438,-4.4449,-4.4442,-4.4476,-4.4472,-4.4483,-4.4279,-4.4244,-4.4479,-4.4479,-4.4479,-4.4479,-4.4479,-4.4479,-4.3429,-4.3571,-4.3586,-4.3755,-4.3797,-4.3916,-4.3964,-4.4028,-4.4082,-4.4228,-4.4314,-4.4346,-4.4408,-4.4517,-4.4613,-4.4625,-4.4666,-4.4704,-4.4713,-4.4522,-4.4497,-4.4473,-4.444,-4.4713,-4.4713,-4.4908,-4.491,-4.4911]}]]